WZZ278 LBSF-LUKK

Flight info

Callsign WZZ278
Flight time 0h 59m
Altitude 37000
Route GOL4S/09 GOL DCT SOMOV DCT BCU DCT BUSES
Aircraft A20N/M-SDE1E2E3FGIJ1J4RWXY/LB1

Departure

Time 2026-05-04 16:51
Airport Sofia Airport (LBSF)

Arrival

Time 2026-05-04 17:51
Airport Chişinău International Airport (LUKK)
Time Latitude Longitude Altitude Speed Heading
2026-05-04 16:20 42.69003 23.40640 1749 ft 0 kts 193°
2026-05-04 16:46 42.68983 23.40631 1744 ft 4 kts 201°
2026-05-04 16:47 42.68979 23.40526 1743 ft 11 kts 285°
2026-05-04 16:47 42.69047 23.40214 1741 ft 21 kts 286°
2026-05-04 16:48 42.69156 23.39664 1742 ft 22 kts 287°
2026-05-04 16:48 42.69193 23.39542 1743 ft 0 kts 312°
2026-05-04 16:49 42.69310 23.39560 1741 ft 15 kts
2026-05-04 16:49 42.69521 23.39585 1742 ft 12 kts
2026-05-04 16:50 42.69679 23.39601 1745 ft 8 kts
2026-05-04 16:50 42.69769 23.39689 1744 ft 9 kts 83°
2026-05-04 16:51 42.69714 23.40633 1746 ft 113 kts 95°
2026-05-04 16:51 42.69636 23.41941 1764 ft 162 kts 95°
2026-05-04 16:51 42.69438 23.45192 2629 ft 190 kts 94°
2026-05-04 16:52 42.69195 23.49185 3515 ft 231 kts 92°
2026-05-04 16:52 42.69060 23.51391 4358 ft 236 kts 92°
2026-05-04 16:53 42.68986 23.55890 6131 ft 249 kts 72°
2026-05-04 16:53 42.72620 23.61079 8735 ft 262 kts 37°
2026-05-04 16:54 42.74059 23.62624 9693 ft 265 kts 39°
2026-05-04 16:55 42.80200 23.70075 12056 ft 321 kts 42°
2026-05-04 16:55 42.83533 23.74267 13692 ft 331 kts 42°
2026-05-04 16:56 42.86964 23.78580 15202 ft 339 kts 42°
2026-05-04 16:56 42.92231 23.85208 17454 ft 349 kts 42°
2026-05-04 16:57 42.94024 23.87468 18152 ft 352 kts 42°
2026-05-04 16:57 42.97647 23.92040 19512 ft 357 kts 42°
2026-05-04 16:58 43.03127 23.98969 21495 ft 362 kts 42°
2026-05-04 16:58 43.04982 24.01318 22113 ft 364 kts 42°
2026-05-04 16:59 43.08728 24.06069 23377 ft 369 kts 42°
2026-05-04 17:00 43.16331 24.15737 25497 ft 376 kts 43°
2026-05-04 17:00 43.22124 24.23128 26910 ft 382 kts 43°
2026-05-04 17:01 43.25966 24.28041 27806 ft 386 kts 43°
2026-05-04 17:01 43.29908 24.33091 28652 ft 390 kts 43°
2026-05-04 17:02 43.33883 24.38192 29433 ft 393 kts 43°
2026-05-04 17:02 43.37902 24.43359 30172 ft 398 kts 43°
2026-05-04 17:03 43.39919 24.45956 30523 ft 399 kts 43°
2026-05-04 17:03 43.41955 24.48580 30732 ft 403 kts 43°
2026-05-04 17:03 43.46072 24.53894 31307 ft 408 kts 43°
2026-05-04 17:04 43.50435 24.58880 31972 ft 410 kts 30°
2026-05-04 17:04 43.55600 24.62267 32653 ft 411 kts 26°
2026-05-04 17:05 43.60782 24.65633 33303 ft 412 kts 27°
2026-05-04 17:05 43.65902 24.69188 33939 ft 412 kts 28°
2026-05-04 17:06 43.71021 24.72810 34430 ft 414 kts 28°
2026-05-04 17:06 43.73585 24.74630 34651 ft 415 kts 28°
2026-05-04 17:07 43.78732 24.78286 35038 ft 417 kts 28°
2026-05-04 17:07 43.80445 24.79504 35054 ft 417 kts 28°
2026-05-04 17:07 43.86460 24.83784 35042 ft 415 kts 28°
2026-05-04 17:08 43.94175 24.89291 35045 ft 416 kts 28°
2026-05-04 17:09 43.99286 24.92948 35043 ft 416 kts 28°
2026-05-04 17:09 44.04460 24.96657 35041 ft 415 kts 28°
2026-05-04 17:10 44.17265 25.05867 35034 ft 415 kts 28°
2026-05-04 17:11 44.22401 25.09574 35038 ft 416 kts 28°
2026-05-04 17:12 44.30114 25.15156 35034 ft 417 kts 28°
2026-05-04 17:13 44.42983 25.24504 35027 ft 417 kts 28°
2026-05-04 17:14 44.53268 25.32010 35027 ft 417 kts 28°
2026-05-04 17:15 44.60984 25.37660 35026 ft 418 kts 28°
2026-05-04 17:16 44.71280 25.45227 35027 ft 418 kts 28°
2026-05-04 17:17 44.81587 25.52832 35025 ft 419 kts 28°
2026-05-04 17:18 44.91892 25.60467 35041 ft 419 kts 28°
2026-05-04 17:19 45.01340 25.67494 35052 ft 420 kts 28°
2026-05-04 17:20 45.12520 25.75843 35062 ft 421 kts 28°
2026-05-04 17:20 45.19447 25.81036 35062 ft 421 kts 28°
2026-05-04 17:21 45.29815 25.88834 35077 ft 422 kts 28°
2026-05-04 17:22 45.35008 25.92752 35075 ft 422 kts 29°
2026-05-04 17:23 45.45399 26.00617 35081 ft 423 kts 29°
2026-05-04 17:24 45.53175 26.06524 35077 ft 425 kts 29°
2026-05-04 17:24 45.60401 26.13699 35069 ft 424 kts 44°
2026-05-04 17:25 45.62519 26.16631 35078 ft 425 kts 44°
2026-05-04 17:26 45.70879 26.28566 35076 ft 425 kts 45°
2026-05-04 17:27 45.81265 26.43628 35074 ft 425 kts 45°
2026-05-04 17:28 45.89549 26.55701 35064 ft 421 kts 45°
2026-05-04 17:29 45.95730 26.64756 35060 ft 432 kts 44°
2026-05-04 17:29 46.02198 26.74247 35050 ft 450 kts 44°
2026-05-04 17:30 46.08705 26.83839 33883 ft 447 kts 44°
2026-05-04 17:31 46.13083 26.90308 32108 ft 455 kts 44°
2026-05-04 17:31 46.19763 27.00212 29912 ft 456 kts 44°
2026-05-04 17:32 46.24109 27.06677 28918 ft 442 kts 44°
2026-05-04 17:33 46.30400 27.16056 27430 ft 424 kts 44°
2026-05-04 17:33 46.32438 27.19101 26966 ft 418 kts 44°
2026-05-04 17:34 46.38379 27.27996 25566 ft 401 kts 45°
2026-05-04 17:34 46.40304 27.30884 25123 ft 396 kts 45°
2026-05-04 17:35 46.45919 27.39325 23821 ft 380 kts 45°
2026-05-04 17:35 46.49537 27.44783 22795 ft 371 kts 45°
2026-05-04 17:35 46.51318 27.47473 22258 ft 367 kts 45°
2026-05-04 17:36 46.53077 27.50134 21730 ft 363 kts 45°
2026-05-04 17:36 46.54818 27.52769 21204 ft 360 kts 45°
2026-05-04 17:36 46.56517 27.55345 20703 ft 356 kts 45°
2026-05-04 17:36 46.58224 27.57934 20185 ft 353 kts 46°
2026-05-04 17:37 46.59914 27.60499 19707 ft 349 kts 46°
2026-05-04 17:37 46.61585 27.63039 19223 ft 346 kts 46°
2026-05-04 17:37 46.63244 27.65563 18763 ft 343 kts 46°
2026-05-04 17:37 46.64884 27.68061 18281 ft 340 kts 46°
2026-05-04 17:38 46.66511 27.70541 17748 ft 337 kts 46°
2026-05-04 17:38 46.68124 27.73002 17228 ft 335 kts 46°
2026-05-04 17:38 46.69721 27.75441 16737 ft 331 kts 46°
2026-05-04 17:38 46.71302 27.77858 16239 ft 328 kts 46°
2026-05-04 17:39 46.74420 27.82630 15263 ft 322 kts 46°
2026-05-04 17:39 46.75960 27.84989 14782 ft 320 kts 46°
2026-05-04 17:39 46.77487 27.87330 14336 ft 317 kts 46°
2026-05-04 17:40 46.78999 27.89652 13884 ft 314 kts 46°
2026-05-04 17:40 46.80496 27.91952 13395 ft 311 kts 46°
2026-05-04 17:40 46.81979 27.94235 12881 ft 309 kts 45°
2026-05-04 17:40 46.83450 27.96498 12404 ft 306 kts 45°
2026-05-04 17:41 46.84908 27.98746 11913 ft 304 kts 45°
2026-05-04 17:41 46.86351 28.00972 11499 ft 300 kts 45°
2026-05-04 17:41 46.87779 28.03178 11148 ft 295 kts 45°
2026-05-04 17:41 46.89201 28.05373 11042 ft 301 kts 45°
2026-05-04 17:42 46.90510 28.07745 10980 ft 301 kts 57°
2026-05-04 17:42 46.91188 28.10639 10673 ft 306 kts 78°
2026-05-04 17:42 46.91344 28.13752 10210 ft 308 kts 83°
2026-05-04 17:42 46.91405 28.16874 9713 ft 306 kts 84°
2026-05-04 17:43 46.91444 28.19963 9025 ft 303 kts 84°
2026-05-04 17:43 46.91483 28.23024 8328 ft 300 kts 84°
2026-05-04 17:43 46.91525 28.26053 7731 ft 294 kts 84°
2026-05-04 17:43 46.91568 28.28951 7493 ft 277 kts 84°
2026-05-04 17:44 46.91612 28.31725 6990 ft 271 kts 84°
2026-05-04 17:44 46.91661 28.34475 6430 ft 269 kts 84°
2026-05-04 17:44 46.91710 28.37188 5960 ft 263 kts 84°
2026-05-04 17:44 46.91756 28.39827 5480 ft 258 kts 86°
2026-05-04 17:45 46.91751 28.42412 5369 ft 259 kts 86°
2026-05-04 17:45 46.91800 28.45059 5289 ft 257 kts 85°
2026-05-04 17:45 46.91854 28.47673 5252 ft 261 kts 85°
2026-05-04 17:45 46.91908 28.50327 5152 ft 259 kts 85°
2026-05-04 17:46 46.91960 28.52949 4902 ft 257 kts 85°
2026-05-04 17:46 46.92014 28.55560 4792 ft 260 kts 85°
2026-05-04 17:46 46.92068 28.58207 4613 ft 260 kts 86°
2026-05-04 17:46 46.92121 28.60834 4328 ft 256 kts 86°
2026-05-04 17:47 46.92175 28.63441 4013 ft 257 kts 86°
2026-05-04 17:47 46.92227 28.66052 3686 ft 256 kts 86°
2026-05-04 17:47 46.92280 28.68643 3356 ft 253 kts 86°
2026-05-04 17:47 46.92332 28.71175 3016 ft 244 kts 86°
2026-05-04 17:48 46.92381 28.73604 2706 ft 234 kts 86°
2026-05-04 17:48 46.92429 28.75927 2401 ft 223 kts 86°
2026-05-04 17:48 46.92473 28.78125 2108 ft 206 kts 86°
2026-05-04 17:48 46.92513 28.80117 1861 ft 186 kts 86°
2026-05-04 17:49 46.92550 28.81899 1642 ft 166 kts 87°
2026-05-04 17:49 46.92583 28.83517 1405 ft 152 kts 87°
2026-05-04 17:49 46.92614 28.85016 1192 ft 149 kts 87°
2026-05-04 17:49 46.92658 28.86557 964 ft 153 kts 83°
2026-05-04 17:50 46.92668 28.88089 843 ft 149 kts 83°
2026-05-04 17:50 46.92698 28.89572 630 ft 141 kts 82°
2026-05-04 17:50 46.92734 28.90964 414 ft 135 kts 83°
2026-05-04 17:50 46.92757 28.92074 374 ft 75 kts 88°
2026-05-04 17:51 46.92767 28.92780 361 ft 66 kts 89°
2026-05-04 17:51 46.92790 28.93212 344 ft 33 kts 89°
2026-05-04 17:51 46.92878 28.93413 339 ft 6 kts 356°
2026-05-04 17:51 46.92935 28.93412 336 ft 0 kts 356°
2026-05-04 17:52 46.92938 28.93412 336 ft 0 kts 356°
2026-05-04 17:52 46.92964 28.93416 337 ft 15 kts
2026-05-04 17:53 46.93086 28.93428 335 ft 17 kts
2026-05-04 17:53 46.93128 28.93432 335 ft 6 kts
2026-05-04 17:53 46.93210 28.93444 336 ft 15 kts
2026-05-04 17:53 46.93270 28.93499 333 ft 6 kts 93°
2026-05-04 17:54 46.93244 28.93543 332 ft 5 kts 127°
2026-05-04 17:54 46.93244 28.93549 332 ft 0 kts 101°